When you browse on this site, cookies collect data to enhance your experience and personalize the content and advertising you see.
Visit our Privacy Policy to learn more. By continuing to use the site, you agree to this use of cookies and data.
  • En España
  • Lista de países
  • Para 7 días
  • Temperatura del agua
  • Mapa Satelital
  • El tiempo en el mapa
  • Informadores
  • user-avatar
    Iniciar sesión

    Tiempo cada hora Bolshoy Shokshem

    Hoy, 16 Enero, Miércoles

    Tiempo Temperatura Precipitaciones Viento Presión Humedad
    00:00 -4°C° 0.1 mm 5 mps 735 mmHg 91%
    01:00 -2°C° 0 mm 5 mps 736 mmHg 91%
    02:00 -2°C° 0 mm 5 mps 736 mmHg 92%
    03:00 -2°C° 0 mm 5 mps 736 mmHg 92%
    04:00 -2°C° 0 mm 5 mps 736 mmHg 93%
    05:00 -2°C° 0 mm 4 mps 736 mmHg 93%
    06:00 -2°C° 0 mm 4 mps 736 mmHg 94%
    07:00 -2°C° 0.2 mm 5 mps 735 mmHg 94%
    08:00 -2°C° 0.2 mm 5 mps 735 mmHg 93%
    09:00 -3°C° 0.2 mm 6 mps 735 mmHg 93%
    10:00 -3°C° 0.5 mm 7 mps 734 mmHg 92%
    11:00 -3°C° 0.5 mm 7 mps 733 mmHg 92%
    12:00 -4°C° 0.5 mm 8 mps 733 mmHg 91%
    13:00 -5°C° 0.5 mm 8 mps 732 mmHg 91%
    14:00 -5°C° 0.5 mm 8 mps 732 mmHg 91%
    15:00 -5°C° 0.5 mm 8 mps 731 mmHg 91%
    16:00 -6°C° 0.6 mm 8 mps 731 mmHg 91%
    17:00 -6°C° 0.6 mm 8 mps 731 mmHg 91%
    18:00 -7°C° 0.6 mm 8 mps 731 mmHg 91%
    19:00 -7°C° 0.3 mm 8 mps 730 mmHg 91%
    20:00 -7°C° 0.3 mm 7 mps 730 mmHg 91%
    21:00 -6°C° 0.3 mm 6 mps 730 mmHg 91%
    22:00 -6°C° 0.5 mm 5 mps 730 mmHg 93%
    23:00 -5°C° 0.5 mm 4 mps 730 mmHg 94%

    Mañana, 17 Enero, Jueves

    Tiempo Temperatura Precipitaciones Viento Presión Humedad
    00:00 -4°C° 0.5 mm 3 mps 730 mmHg 96%
    01:00 -6°C° 0.8 mm 5 mps 730 mmHg 95%
    02:00 -8°C° 0.8 mm 6 mps 731 mmHg 94%
    03:00 -11°C° 0.8 mm 8 mps 731 mmHg 93%
    04:00 -12°C° 0.1 mm 7 mps 732 mmHg 93%
    05:00 -13°C° 0.1 mm 7 mps 733 mmHg 92%
    06:00 -15°C° 0.1 mm 6 mps 734 mmHg 92%
    07:00 -15°C° 0 mm 6 mps 735 mmHg 92%
    08:00 -16°C° 0 mm 6 mps 736 mmHg 92%
    09:00 -16°C° 0 mm 6 mps 737 mmHg 92%
    10:00 -16°C° 0 mm 6 mps 738 mmHg 91%
    11:00 -15°C° 0 mm 6 mps 738 mmHg 90%
    12:00 -13°C° 0 mm 5 mps 738 mmHg 90%
    13:00 -13°C° 0 mm 5 mps 738 mmHg 90%
    14:00 -13°C° 0 mm 5 mps 739 mmHg 90%
    15:00 -12°C° 0 mm 5 mps 739 mmHg 90%
    16:00 -13°C° 0 mm 5 mps 739 mmHg 90%
    17:00 -13°C° 0 mm 5 mps 739 mmHg 91%
    18:00 -13°C° 0 mm 5 mps 739 mmHg 91%
    19:00 -13°C° 0 mm 5 mps 739 mmHg 91%
    20:00 -13°C° 0 mm 5 mps 739 mmHg 91%
    21:00 -13°C° 0 mm 5 mps 739 mmHg 91%
    22:00 -14°C° 0 mm 6 mps 739 mmHg 91%
    23:00 -15°C° 0 mm 6 mps 739 mmHg 91%

    Pasado mañana, 18 Enero, Viernes

    Tiempo Temperatura Precipitaciones Viento Presión Humedad
    00:00 -15°C° 0 mm 7 mps 738 mmHg 92%
    01:00 -15°C° 0.1 mm 7 mps 738 mmHg 92%
    02:00 -15°C° 0.1 mm 7 mps 737 mmHg 92%
    03:00 -15°C° 0.1 mm 7 mps 737 mmHg 92%
    04:00 -15°C° 0.3 mm 8 mps 736 mmHg 91%
    05:00 -13°C° 0.3 mm 8 mps 736 mmHg 90%
    06:00 -12°C° 0.3 mm 9 mps 735 mmHg 90%
    07:00 -11°C° 0.1 mm 9 mps 735 mmHg 89%
    08:00 -10°C° 0.1 mm 9 mps 735 mmHg 88%
    09:00 -9°C° 0.1 mm 9 mps 735 mmHg 87%
    10:00 -9°C° 0 mm 9 mps 735 mmHg 87%
    11:00 -7°C° 0 mm 8 mps 735 mmHg 87%
    12:00 -7°C° 0 mm 8 mps 735 mmHg 87%
    13:00 -7°C° 0 mm 8 mps 736 mmHg 87%
    14:00 -6°C° 0 mm 7 mps 736 mmHg 87%
    15:00 -6°C° 0 mm 7 mps 736 mmHg 87%
    16:00 -6°C° 0 mm 7 mps 736 mmHg 88%
    17:00 -6°C° 0 mm 7 mps 736 mmHg 89%
    18:00 -7°C° 0 mm 7 mps 737 mmHg 89%
    19:00 -6°C° 0 mm 6 mps 736 mmHg 90%
    20:00 -6°C° 0 mm 6 mps 736 mmHg 90%
    21:00 -5°C° 0 mm 6 mps 736 mmHg 90%
    22:00 -5°C° 0 mm 6 mps 736 mmHg 91%
    23:00 -5°C° 0 mm 6 mps 736 mmHg 91%

    19 Enero, Sábado

    Tiempo Temperatura Precipitaciones Viento Presión Humedad
    00:00 -5°C° 0 mm 6 mps 736 mmHg 91%
    01:00 -5°C° 0.1 mm 6 mps 736 mmHg 91%
    02:00 -5°C° 0.1 mm 6 mps 735 mmHg 91%
    03:00 -5°C° 0.1 mm 6 mps 735 mmHg 91%
    04:00 -6°C° 0.2 mm 7 mps 734 mmHg 91%
    05:00 -6°C° 0.2 mm 7 mps 733 mmHg 91%
    06:00 -7°C° 0.2 mm 8 mps 732 mmHg 91%
    07:00 -6°C° 0.4 mm 7 mps 732 mmHg 91%
    08:00 -4°C° 0.4 mm 7 mps 732 mmHg 92%
    09:00 -4°C° 0.4 mm 7 mps 732 mmHg 92%
    10:00 -4°C° 0.1 mm 7 mps 733 mmHg 90%
    11:00 -6°C° 0.1 mm 7 mps 733 mmHg 87%
    12:00 -7°C° 0.1 mm 7 mps 734 mmHg 85%
    13:00 -6°C° 0 mm 6 mps 734 mmHg 85%
    14:00 -8°C° 0 mm 6 mps 735 mmHg 85%
    15:00 -8°C° 0 mm 5 mps 735 mmHg 86%
    16:00 -10°C° 0 mm 5 mps 736 mmHg 86%
    17:00 -11°C° 0 mm 5 mps 736 mmHg 86%
    18:00 -13°C° 0 mm 5 mps 737 mmHg 87%
    19:00 -14°C° 0 mm 5 mps 737 mmHg 88%
    20:00 -15°C° 0 mm 5 mps 737 mmHg 90%
    21:00 -17°C° 0 mm 5 mps 737 mmHg 92%
    22:00 -17°C° 0 mm 5 mps 737 mmHg 92%
    23:00 -15°C° 0 mm 5 mps 737 mmHg 91%

    20 Enero, Domingo

    Tiempo Temperatura Precipitaciones Viento Presión Humedad
    00:00 -16°C° 0 mm 6 mps 738 mmHg 91%
    01:00 -15°C° 0.1 mm 6 mps 738 mmHg 90%
    02:00 -14°C° 0.1 mm 6 mps 738 mmHg 90%
    03:00 -12°C° 0.1 mm 6 mps 738 mmHg 89%
    04:00 -14°C° 0.1 mm 6 mps 737 mmHg 89%
    05:00 -14°C° 0.1 mm 6 mps 737 mmHg 90%
    06:00 -14°C° 0.1 mm 6 mps 737 mmHg 90%
    07:00 -14°C° 0.1 mm 6 mps 737 mmHg 90%
    08:00 -14°C° 0.1 mm 6 mps 738 mmHg 91%
    09:00 -13°C° 0.1 mm 5 mps 738 mmHg 91%
    10:00 -12°C° 0.1 mm 6 mps 738 mmHg 90%
    11:00 -11°C° 0.1 mm 6 mps 739 mmHg 89%
    12:00 -11°C° 0.1 mm 7 mps 739 mmHg 88%
    13:00 -11°C° 0.1 mm 7 mps 739 mmHg 87%
    14:00 -11°C° 0.1 mm 7 mps 739 mmHg 87%
    15:00 -11°C° 0.1 mm 7 mps 739 mmHg 86%
    16:00 -11°C° 0.1 mm 7 mps 740 mmHg 87%
    17:00 -10°C° 0.1 mm 6 mps 740 mmHg 89%
    18:00 -11°C° 0.1 mm 6 mps 740 mmHg 90%
    19:00 -11°C° 0.2 mm 6 mps 741 mmHg 90%
    20:00 -11°C° 0.2 mm 6 mps 741 mmHg 90%
    21:00 -11°C° 0.2 mm 6 mps 741 mmHg 91%
    22:00 -11°C° 0.1 mm 6 mps 742 mmHg 91%
    23:00 -11°C° 0.1 mm 6 mps 742 mmHg 91%

    21 Enero, Lunes

    Tiempo Temperatura Precipitaciones Viento Presión Humedad
    00:00 -11°C° 0.1 mm 5 mps 742 mmHg 92%
    01:00 -12°C° 0.1 mm 5 mps 742 mmHg 92%
    02:00 -13°C° 0.1 mm 5 mps 743 mmHg 93%
    03:00 -14°C° 0.1 mm 5 mps 743 mmHg 93%
    04:00 -14°C° 0 mm 4 mps 743 mmHg 94%
    05:00 -15°C° 0 mm 4 mps 743 mmHg 95%
    06:00 -14°C° 0 mm 3 mps 743 mmHg 96%
    07:00 -14°C° 0 mm 3 mps 743 mmHg 96%
    08:00 -14°C° 0 mm 3 mps 743 mmHg 96%
    09:00 -14°C° 0 mm 3 mps 744 mmHg 96%
    10:00 -14°C° 0 mm 3 mps 744 mmHg 96%
    11:00 -14°C° 0 mm 3 mps 744 mmHg 96%
    12:00 -13°C° 0 mm 3 mps 744 mmHg 95%
    13:00 -13°C° 0 mm 3 mps 745 mmHg 95%
    14:00 -13°C° 0 mm 3 mps 745 mmHg 95%
    15:00 -12°C° 0 mm 2 mps 745 mmHg 95%
    16:00 -13°C° 0 mm 2 mps 745 mmHg 96%
    17:00 -14°C° 0 mm 2 mps 745 mmHg 96%
    18:00 -15°C° 0 mm 2 mps 745 mmHg 97%
    19:00 -15°C° 0 mm 2 mps 745 mmHg 97%
    20:00 -15°C° 0 mm 2 mps 745 mmHg 97%
    21:00 -15°C° 0 mm 2 mps 746 mmHg 96%
    22:00 -16°C° 0 mm 2 mps 745 mmHg 97%
    23:00 -16°C° 0 mm 2 mps 745 mmHg 97%
    Mostrar más